View from above orbital plane
|
View from above satellite
|
Ground track
|
The orbit data is extracted from the following two-line orbital elements,
1 26474U 00047B 21016.79776986 .00000054 00000-0 15630-4 0 9991
2 26474 67.9921 208.4088 0059206 319.0637 40.6066 14.96067949111156
Epoch (UTC): | 16 January 2021 19:08:47 |
Eccentricity: | 0.0059206 |
inclination: | 67.9921° |
perigee height: | 538 km |
apogee height: | 620 km |
right ascension of ascending node: | 208.4088° |
argument of perigee: | 319.0637° |
revolutions per day: | 14.96067949 |
mean anomaly at epoch: | 40.6066° |
orbit number at epoch: | 11115 |
The dashed part of the orbit path shows where the satellite is in the earth's shadow,
|
|